QPF
0.00 0.00 0.00 0.00 0.00 0.00 0.00 0.00 0.00 0.00 0.00 0.00 0.00 0.00 0.00 0.00 0.00 0.01 0.01 0.00 0.00 0.01 0.02 0.06 0.12 0.21 0.25 0.24 0.21 0.15 0.10 0.08 0.13 0.14 0.14 0.14 0.07 0.03 0.02 0.02 0.01 0.01 0.00
0.00 0.00 0.00 0.00 0.00 0.00 0.00 0.00 0.00 0.00 0.00 0.00 0.01 0.01 0.01 0.00 0.01 0.01 0.01 0.01 0.01 0.01 0.01 0.02 0.05 0.11 0.19 0.22 0.23 0.22 0.20 0.17 0.16 0.19 0.25 0.25 0.17 0.13 0.08 0.03 0.01 0.00 0.00
0.00 0.00 0.00 0.00 0.00 0.00 0.00 0.00 0.00 0.00 0.00 0.00 0.01 0.01 0.01 0.01 0.01 0.01 0.02 0.01 0.01 0.01 0.01 0.01 0.02 0.05 0.10 0.17 0.20 0.21 0.22 0.23 0.20 0.19 0.23 0.28 0.26 0.20 0.10 0.02 0.00 0.00 0.00
0.00 0.00 0.00 0.00 0.00 0.00 0.00 0.01 0.01 0.01 0.01 0.01 0.02 0.02 0.02 0.02 0.02 0.02 0.02 0.02 0.03 0.02 0.02 0.02 0.01 0.02 0.04 0.09 0.14 0.17 0.20 0.23 0.25 0.23 0.23 0.27 0.28 0.25 0.12 0.02 0.00 0.00 0.00
0.00 0.00 0.00 0.00 0.00 0.01 0.01 0.01 0.01 0.02 0.02 0.02 0.03 0.04 0.04 0.04 0.03 0.03 0.04 0.04 0.06 0.06 0.05 0.04 0.02 0.01 0.01 0.03 0.07 0.11 0.17 0.21 0.25 0.26 0.26 0.27 0.27 0.22 0.12 0.03 0.00 0.00 0.00
0.00 0.00 0.00 0.01 0.01 0.01 0.01 0.01 0.01 0.02 0.03 0.04 0.04 0.05 0.06 0.04 0.04 0.05 0.05 0.06 0.09 0.11 0.11 0.10 0.07 0.03 0.02 0.01 0.02 0.06 0.13 0.19 0.24 0.26 0.28 0.30 0.31 0.29 0.23 0.07 0.00 0.00 0.00
0.00 0.00 0.01 0.01 0.01 0.01 0.01 0.01 0.02 0.03 0.04 0.04 0.05 0.06 0.07 0.07 0.07 0.07 0.05 0.07 0.10 0.13 0.15 0.16 0.09 0.03 0.04 0.03 0.01 0.03 0.06 0.12 0.18 0.24 0.25 0.29 0.38 0.41 0.33 0.13 0.02 0.01 0.00
0.01 0.01 0.01 0.01 0.01 0.01 0.02 0.03 0.04 0.05 0.05 0.05 0.05 0.06 0.09 0.08 0.07 0.06 0.05 0.07 0.09 0.12 0.16 0.18 0.13 0.10 0.10 0.11 0.06 0.02 0.03 0.06 0.10 0.15 0.18 0.23 0.31 0.41 0.41 0.28 0.11 0.03 0.00
0.01 0.01 0.01 0.01 0.02 0.02 0.03 0.04 0.05 0.06 0.06 0.06 0.06 0.07 0.09 0.10 0.08 0.05 0.05 0.09 0.13 0.13 0.15 0.15 0.15 0.13 0.10 0.09 0.11 0.07 0.04 0.04 0.07 0.11 0.15 0.19 0.22 0.29 0.40 0.33 0.12 0.02 0.00
0.01 0.01 0.01 0.01 0.03 0.03 0.04 0.05 0.06 0.07 0.07 0.06 0.06 0.08 0.09 0.11 0.10 0.05 0.04 0.12 0.17 0.18 0.18 0.19 0.20 0.18 0.12 0.05 0.08 0.10 0.07 0.05 0.05 0.07 0.10 0.13 0.17 0.19 0.27 0.28 0.12 0.02 0.00
0.01 0.01 0.01 0.02 0.03 0.03 0.05 0.07 0.08 0.09 0.08 0.07 0.08 0.09 0.10 0.11 0.10 0.04 0.04 0.10 0.17 0.20 0.19 0.16 0.16 0.13 0.10 0.04 0.06 0.09 0.07 0.06 0.06 0.06 0.08 0.10 0.13 0.17 0.19 0.23 0.17 0.05 0.00
0.01 0.01 0.01 0.02 0.02 0.03 0.05 0.08 0.10 0.11 0.10 0.09 0.10 0.11 0.13 0.13 0.10 0.06 0.02 0.05 0.13 0.20 0.23 0.19 0.17 0.12 0.06 0.02 0.02 0.04 0.02 0.02 0.05 0.07 0.08 0.09 0.11 0.13 0.16 0.19 0.16 0.09 0.03
0.01 0.01 0.02 0.02 0.02 0.05 0.08 0.10 0.11 0.13 0.13 0.12 0.12 0.12 0.14 0.15 0.11 0.03 0.01 0.03 0.08 0.17 0.25 0.25 0.17 0.10 0.04 0.02 0.01 0.01 0.01 0.01 0.02 0.04 0.06 0.08 0.11 0.14 0.17 0.16 0.13 0.06 0.03
0.01 0.01 0.02 0.02 0.02 0.05 0.09 0.12 0.12 0.12 0.11 0.10 0.10 0.12 0.14 0.16 0.14 0.09 0.05 0.03 0.06 0.11 0.17 0.17 0.10 0.06 0.03 0.01 0.00 0.00 0.00 0.00 0.01 0.02 0.05 0.10 0.15 0.16 0.16 0.11 0.07 0.04 0.03
0.01 0.02 0.02 0.02 0.03 0.06 0.10 0.12 0.08 0.07 0.04 0.03 0.04 0.07 0.11 0.13 0.09 0.06 0.07 0.08 0.07 0.08 0.11 0.12 0.07 0.04 0.02 0.02 0.01 0.01 0.01 0.01 0.01 0.02 0.06 0.11 0.14 0.16 0.13 0.09 0.06 0.03 0.02
0.01 0.02 0.02 0.02 0.03 0.07 0.09 0.10 0.07 0.02 0.01 0.01 0.00 0.01 0.02 0.03 0.02 0.01 0.01 0.02 0.02 0.04 0.07 0.10 0.08 0.06 0.03 0.02 0.02 0.03 0.03 0.02 0.02 0.03 0.07 0.11 0.15 0.13 0.10 0.06 0.05 0.04 0.02
0.02 0.02 0.02 0.03 0.05 0.08 0.09 0.11 0.11 0.09 0.03 0.01 0.01 0.00 0.00 0.00 0.00 0.00 0.00 0.01 0.01 0.02 0.04 0.06 0.07 0.06 0.05 0.04 0.04 0.05 0.05 0.04 0.05 0.06 0.08 0.13 0.16 0.14 0.08 0.05 0.04 0.03 0.02
0.01 0.02 0.02 0.03 0.06 0.08 0.10 0.11 0.12 0.13 0.12 0.07 0.02 0.00 0.00 0.00 0.00 0.00 0.00 0.00 0.00 0.01 0.02 0.03 0.04 0.05 0.05 0.06 0.06 0.06 0.07 0.06 0.06 0.07 0.10 0.16 0.17 0.14 0.09 0.05 0.03 0.02 0.01
0.01 0.01 0.01 0.03 0.05 0.09 0.12 0.12 0.12 0.12 0.14 0.11 0.07 0.03 0.00 0.00 0.00 0.00 0.00 0.01 0.02 0.01 0.01 0.02 0.03 0.05 0.07 0.08 0.08 0.08 0.08 0.07 0.06 0.08 0.12 0.17 0.19 0.17 0.11 0.06 0.03 0.03 0.02
0.01 0.01 0.01 0.02 0.05 0.09 0.12 0.11 0.11 0.13 0.14 0.13 0.11 0.08 0.04 0.02 0.02 0.02 0.01 0.03 0.05 0.05 0.04 0.03 0.04 0.05 0.08 0.09 0.10 0.09 0.08 0.07 0.07 0.08 0.13 0.18 0.19 0.17 0.13 0.08 0.04 0.03 0.02
0.01 0.01 0.01 0.04 0.06 0.08 0.10 0.10 0.10 0.12 0.12 0.12 0.10 0.05 0.03 0.06 0.08 0.07 0.05 0.05 0.05 0.06 0.05 0.04 0.05 0.05 0.06 0.08 0.08 0.07 0.06 0.05 0.06 0.09 0.15 0.19 0.19 0.18 0.16 0.11 0.06 0.03 0.02
0.00 0.01 0.02 0.04 0.05 0.06 0.06 0.09 0.10 0.09 0.08 0.09 0.09 0.05 0.02 0.04 0.10 0.10 0.07 0.06 0.07 0.07 0.05 0.05 0.05 0.05 0.05 0.06 0.07 0.06 0.04 0.05 0.07 0.12 0.18 0.20 0.20 0.20 0.19 0.16 0.10 0.06 0.04
0.00 0.01 0.02 0.03 0.05 0.04 0.06 0.09 0.09 0.08 0.07 0.08 0.08 0.08 0.07 0.08 0.09 0.08 0.06 0.06 0.06 0.06 0.04 0.05 0.05 0.05 0.06 0.06 0.06 0.05 0.04 0.05 0.09 0.15 0.21 0.23 0.23 0.22 0.21 0.16 0.11 0.08 0.05
0.00 0.00 0.01 0.02 0.05 0.06 0.07 0.08 0.07 0.05 0.06 0.07 0.06 0.07 0.08 0.07 0.07 0.06 0.06 0.06 0.05 0.04 0.04 0.04 0.05 0.05 0.06 0.06 0.06 0.05 0.05 0.08 0.15 0.20 0.24 0.24 0.23 0.22 0.20 0.17 0.12 0.09 0.07
0.00 0.00 0.01 0.02 0.03 0.06 0.08 0.07 0.06 0.05 0.05 0.07 0.07 0.08 0.08 0.07 0.07 0.07 0.07 0.06 0.06 0.06 0.08 0.08 0.09 0.08 0.07 0.07 0.06 0.07 0.10 0.15 0.22 0.26 0.27 0.25 0.22 0.20 0.18 0.16 0.12 0.10 0.08
0.00 0.00 0.00 0.01 0.01 0.03 0.07 0.07 0.06 0.05 0.05 0.06 0.08 0.09 0.09 0.09 0.10 0.11 0.09 0.08 0.09 0.11 0.12 0.11 0.09 0.09 0.10 0.11 0.10 0.11 0.13 0.17 0.22 0.26 0.25 0.23 0.21 0.19 0.17 0.14 0.11 0.09 0.07
MSLP
1010.67 1010.72 1010.77 1010.77 1010.70 1010.52 1010.25 1009.91 1009.52 1009.14 1008.78 1008.47 1008.22 1008.00 1007.82 1007.65 1007.47 1007.30 1007.12 1006.96 1006.83 1006.77 1006.77 1006.84 1006.98 1007.17 1007.39 1007.61 1007.82 1008.01 1008.19 1008.35 1008.51 1008.68 1008.89 1009.12 1009.40 1009.70 1010.02 1010.35 1010.67 1010.97 1011.23
1010.51 1010.51 1010.50 1010.46 1010.34 1010.15 1009.87 1009.54 1009.17 1008.80 1008.46 1008.17 1007.92 1007.72 1007.55 1007.38 1007.21 1007.02 1006.83 1006.65 1006.49 1006.37 1006.31 1006.33 1006.40 1006.54 1006.73 1006.95 1007.18 1007.42 1007.66 1007.91 1008.16 1008.44 1008.74 1009.07 1009.42 1009.79 1010.17 1010.54 1010.89 1011.20 1011.47
1010.39 1010.33 1010.26 1010.16 1010.00 1009.76 1009.46 1009.12 1008.76 1008.41 1008.09 1007.82 1007.59 1007.41 1007.25 1007.10 1006.93 1006.75 1006.55 1006.34 1006.15 1005.99 1005.88 1005.84 1005.86 1005.95 1006.10 1006.31 1006.55 1006.82 1007.11 1007.42 1007.76 1008.11 1008.50 1008.91 1009.34 1009.78 1010.23 1010.66 1011.05 1011.41 1011.71
1010.28 1010.17 1010.04 1009.87 1009.65 1009.37 1009.04 1008.69 1008.32 1007.98 1007.68 1007.43 1007.23 1007.06 1006.92 1006.77 1006.61 1006.42 1006.21 1005.99 1005.78 1005.59 1005.44 1005.36 1005.34 1005.40 1005.53 1005.72 1005.96 1006.25 1006.57 1006.93 1007.32 1007.73 1008.18 1008.66 1009.15 1009.66 1010.16 1010.65 1011.11 1011.52 1011.88
1010.12 1009.97 1009.79 1009.57 1009.30 1008.98 1008.62 1008.24 1007.87 1007.53 1007.24 1006.99 1006.80 1006.64 1006.49 1006.34 1006.17 1005.98 1005.76 1005.53 1005.31 1005.11 1004.95 1004.85 1004.83 1004.88 1005.00 1005.19 1005.43 1005.73 1006.07 1006.45 1006.86 1007.31 1007.79 1008.31 1008.85 1009.40 1009.95 1010.50 1011.02 1011.51 1011.94
1009.89 1009.72 1009.50 1009.24 1008.92 1008.56 1008.17 1007.77 1007.39 1007.04 1006.74 1006.49 1006.28 1006.11 1005.94 1005.77 1005.58 1005.37 1005.15 1004.91 1004.69 1004.50 1004.36 1004.28 1004.27 1004.34 1004.48 1004.68 1004.94 1005.25 1005.59 1005.98 1006.40 1006.86 1007.35 1007.88 1008.43 1009.01 1009.61 1010.20 1010.78 1011.34 1011.86
1009.58 1009.39 1009.16 1008.86 1008.51 1008.11 1007.69 1007.27 1006.86 1006.49 1006.17 1005.89 1005.65 1005.44 1005.24 1005.03 1004.81 1004.58 1004.34 1004.12 1003.91 1003.75 1003.65 1003.62 1003.66 1003.77 1003.95 1004.18 1004.46 1004.78 1005.13 1005.52 1005.93 1006.38 1006.86 1007.39 1007.95 1008.53 1009.15 1009.77 1010.40 1011.03 1011.63
1009.21 1009.02 1008.77 1008.45 1008.06 1007.63 1007.18 1006.72 1006.28 1005.88 1005.52 1005.20 1004.92 1004.65 1004.40 1004.15 1003.90 1003.65 1003.41 1003.19 1003.02 1002.90 1002.86 1002.88 1002.99 1003.16 1003.40 1003.67 1003.98 1004.32 1004.68 1005.06 1005.46 1005.89 1006.36 1006.87 1007.42 1008.00 1008.63 1009.27 1009.94 1010.61 1011.29
1008.83 1008.64 1008.37 1008.02 1007.60 1007.13 1006.64 1006.14 1005.66 1005.21 1004.80 1004.44 1004.11 1003.80 1003.50 1003.21 1002.93 1002.67 1002.43 1002.24 1002.11 1002.04 1002.06 1002.16 1002.33 1002.57 1002.85 1003.17 1003.52 1003.87 1004.23 1004.60 1004.99 1005.41 1005.86 1006.36 1006.90 1007.48 1008.10 1008.76 1009.45 1010.16 1010.88
1008.50 1008.30 1008.00 1007.62 1007.16 1006.64 1006.10 1005.55 1005.02 1004.53 1004.07 1003.67 1003.30 1002.95 1002.63 1002.33 1002.04 1001.78 1001.56 1001.40 1001.31 1001.30 1001.38 1001.53 1001.76 1002.05 1002.37 1002.72 1003.08 1003.44 1003.80 1004.17 1004.55 1004.96 1005.40 1005.89 1006.42 1007.00 1007.63 1008.30 1009.00 1009.73 1010.47
1008.26 1008.03 1007.70 1007.26 1006.74 1006.17 1005.57 1004.97 1004.40 1003.86 1003.38 1002.95 1002.56 1002.21 1001.89 1001.60 1001.34 1001.11 1000.93 1000.81 1000.76 1000.79 1000.91 1001.10 1001.35 1001.66 1001.99 1002.34 1002.70 1003.05 1003.41 1003.77 1004.14 1004.55 1004.99 1005.47 1006.01 1006.60 1007.24 1007.92 1008.63 1009.36 1010.11
1008.12 1007.84 1007.45 1006.95 1006.37 1005.73 1005.07 1004.43 1003.81 1003.26 1002.77 1002.34 1001.97 1001.65 1001.37 1001.12 1000.91 1000.73 1000.60 1000.53 1000.52 1000.57 1000.70 1000.90 1001.14 1001.43 1001.74 1002.07 1002.39 1002.72 1003.06 1003.40 1003.77 1004.17 1004.62 1005.12 1005.68 1006.28 1006.93 1007.62 1008.33 1009.06 1009.81
1008.04 1007.70 1007.25 1006.68 1006.03 1005.32 1004.61 1003.93 1003.29 1002.73 1002.25 1001.86 1001.54 1001.29 1001.08 1000.91 1000.77 1000.66 1000.59 1000.55 1000.57 1000.63 1000.75 1000.91 1001.12 1001.35 1001.61 1001.88 1002.16 1002.44 1002.75 1003.07 1003.43 1003.84 1004.30 1004.81 1005.39 1006.02 1006.68 1007.38 1008.10 1008.82 1009.56
1007.97 1007.57 1007.03 1006.40 1005.68 1004.92 1004.17 1003.46 1002.82 1002.28 1001.85 1001.51 1001.27 1001.10 1000.99 1000.91 1000.86 1000.82 1000.81 1000.81 1000.83 1000.88 1000.96 1001.07 1001.21 1001.37 1001.55 1001.74 1001.95 1002.19 1002.45 1002.75 1003.10 1003.52 1003.99 1004.53 1005.12 1005.77 1006.45 1007.16 1007.88 1008.60 1009.32
1007.84 1007.37 1006.77 1006.07 1005.29 1004.49 1003.72 1003.00 1002.39 1001.88 1001.51 1001.25 1001.10 1001.02 1001.01 1001.03 1001.06 1001.09 1001.12 1001.15 1001.17 1001.19 1001.21 1001.25 1001.31 1001.38 1001.48 1001.59 1001.74 1001.92 1002.15 1002.43 1002.78 1003.19 1003.67 1004.23 1004.84 1005.50 1006.20 1006.92 1007.64 1008.35 1009.05
1007.60 1007.06 1006.41 1005.65 1004.84 1004.02 1003.24 1002.54 1001.96 1001.51 1001.19 1001.01 1000.95 1000.97 1001.04 1001.13 1001.23 1001.32 1001.37 1001.40 1001.40 1001.38 1001.35 1001.32 1001.30 1001.30 1001.32 1001.38 1001.47 1001.62 1001.82 1002.09 1002.43 1002.85 1003.34 1003.90 1004.52 1005.19 1005.89 1006.61 1007.32 1008.03 1008.72
1007.24 1006.65 1005.94 1005.16 1004.33 1003.51 1002.74 1002.07 1001.52 1001.12 1000.87 1000.75 1000.75 1000.84 1000.97 1001.12 1001.25 1001.36 1001.42 1001.43 1001.40 1001.34 1001.26 1001.18 1001.10 1001.05 1001.03 1001.05 1001.12 1001.26 1001.46 1001.73 1002.07 1002.49 1002.99 1003.55 1004.16 1004.83 1005.51 1006.22 1006.92 1007.62 1008.29
1006.78 1006.14 1005.41 1004.60 1003.77 1002.96 1002.22 1001.58 1001.08 1000.72 1000.51 1000.43 1000.47 1000.59 1000.74 1000.91 1001.05 1001.14 1001.19 1001.17 1001.11 1001.02 1000.91 1000.79 1000.69 1000.62 1000.59 1000.61 1000.70 1000.85 1001.06 1001.35 1001.71 1002.13 1002.63 1003.18 1003.78 1004.42 1005.09 1005.77 1006.45 1007.13 1007.80
1006.28 1005.61 1004.85 1004.05 1003.23 1002.44 1001.72 1001.11 1000.63 1000.30 1000.12 1000.06 1000.10 1000.21 1000.35 1000.49 1000.61 1000.67 1000.69 1000.64 1000.55 1000.43 1000.30 1000.18 1000.09 1000.04 1000.03 1000.09 1000.22 1000.41 1000.66 1000.98 1001.36 1001.79 1002.28 1002.82 1003.40 1004.01 1004.64 1005.29 1005.95 1006.61 1007.25
1005.80 1005.11 1004.35 1003.55 1002.74 1001.97 1001.28 1000.69 1000.23 999.91 999.72 999.64 999.66 999.74 999.84 999.93 1000.00 1000.02 999.99 999.91 999.80 999.67 999.54 999.44 999.38 999.37 999.43 999.55 999.73 999.98 1000.29 1000.64 1001.04 1001.49 1001.98 1002.49 1003.04 1003.62 1004.22 1004.83 1005.46 1006.08 1006.71
1005.40 1004.70 1003.94 1003.15 1002.36 1001.61 1000.94 1000.36 999.90 999.56 999.35 999.23 999.20 999.22 999.26 999.30 999.30 999.27 999.20 999.10 998.97 998.85 998.74 998.68 998.67 998.72 998.84 999.03 999.28 999.60 999.95 1000.35 1000.78 1001.23 1001.71 1002.21 1002.73 1003.27 1003.84 1004.41 1005.01 1005.61 1006.22
1005.13 1004.43 1003.68 1002.90 1002.13 1001.39 1000.72 1000.14 999.66 999.30 999.04 998.88 998.79 998.75 998.72 998.69 998.64 998.56 998.46 998.34 998.21 998.10 998.02 998.00 998.04 998.15 998.34 998.59 998.91 999.28 999.68 1000.11 1000.56 1001.02 1001.49 1001.98 1002.48 1002.99 1003.52 1004.07 1004.63 1005.21 1005.80
1004.98 1004.30 1003.56 1002.80 1002.04 1001.31 1000.63 1000.04 999.54 999.14 998.84 998.63 998.48 998.37 998.29 998.20 998.11 997.99 997.87 997.73 997.61 997.52 997.47 997.49 997.57 997.73 997.97 998.27 998.63 999.04 999.47 999.92 1000.38 1000.85 1001.31 1001.79 1002.27 1002.76 1003.27 1003.80 1004.35 1004.91 1005.48
1004.92 1004.27 1003.57 1002.83 1002.08 1001.36 1000.68 1000.07 999.54 999.11 998.76 998.50 998.30 998.14 998.01 997.88 997.76 997.62 997.49 997.36 997.24 997.17 997.15 997.19 997.30 997.49 997.75 998.08 998.46 998.88 999.32 999.78 1000.24 1000.70 1001.17 1001.63 1002.11 1002.59 1003.09 1003.61 1004.14 1004.68 1005.24
1004.93 1004.33 1003.67 1002.96 1002.23 1001.51 1000.83 1000.21 999.66 999.20 998.81 998.51 998.27 998.07 997.91 997.76 997.62 997.47 997.34 997.21 997.11 997.05 997.04 997.10 997.22 997.42 997.68 998.01 998.39 998.80 999.24 999.68 1000.14 1000.59 1001.05 1001.51 1001.98 1002.46 1002.95 1003.46 1003.99 1004.53 1005.07
1004.98 1004.44 1003.83 1003.16 1002.46 1001.76 1001.09 1000.46 999.89 999.41 999.00 998.66 998.39 998.17 997.99 997.83 997.68 997.54 997.40 997.29 997.20 997.15 997.14 997.20 997.32 997.51 997.76 998.07 998.42 998.81 999.22 999.65 1000.09 1000.53 1000.97 1001.42 1001.88 1002.36 1002.85 1003.36 1003.88 1004.41 1004.94
Thickness
5646 5640 5634 5630 5625 5622 5619 5617 5616 5615 5613 5612 5611 5611 5610 5611 5611 5612 5613 5617 5621 5625 5630 5634 5639 5644 5649 5655 5662 5668 5674 5679 5679 5685 5692 5698 5700 5702 5701 5701 5702 5704 5705
5636 5630 5625 5620 5616 5613 5610 5608 5605 5603 5601 5599 5597 5595 5594 5594 5594 5594 5596 5600 5604 5609 5616 5621 5626 5632 5637 5643 5650 5657 5663 5669 5673 5675 5680 5685 5689 5693 5693 5694 5696 5697 5697
5627 5621 5616 5611 5607 5604 5601 5598 5595 5592 5589 5586 5583 5580 5578 5576 5575 5575 5576 5579 5585 5593 5600 5607 5613 5619 5625 5631 5638 5645 5653 5661 5666 5668 5672 5678 5680 5683 5684 5685 5687 5688 5690
5620 5613 5608 5603 5599 5595 5592 5588 5584 5580 5577 5573 5569 5565 5561 5558 5556 5555 5556 5558 5564 5573 5582 5591 5600 5606 5613 5619 5626 5634 5641 5648 5655 5659 5664 5669 5672 5675 5676 5676 5676 5679 5682
5612 5606 5600 5596 5591 5587 5583 5579 5574 5569 5565 5560 5554 5549 5544 5541 5539 5538 5537 5539 5544 5551 5562 5573 5584 5593 5601 5608 5615 5622 5629 5636 5643 5650 5656 5661 5664 5666 5668 5671 5670 5671 5673
5604 5598 5593 5588 5584 5579 5575 5570 5565 5559 5553 5547 5541 5535 5530 5527 5525 5521 5519 5520 5525 5532 5542 5555 5566 5577 5587 5596 5604 5612 5619 5626 5634 5642 5649 5654 5661 5664 5666 5666 5665 5665 5665
5598 5592 5586 5582 5577 5572 5568 5562 5556 5549 5543 5536 5530 5524 5519 5515 5510 5507 5506 5506 5511 5518 5528 5539 5550 5565 5575 5584 5590 5598 5606 5615 5624 5634 5640 5648 5653 5658 5661 5661 5661 5663 5665
5591 5585 5580 5574 5570 5565 5559 5554 5547 5541 5534 5528 5522 5516 5510 5506 5501 5498 5496 5496 5502 5510 5520 5530 5539 5552 5566 5575 5580 5586 5594 5603 5613 5622 5632 5639 5644 5649 5655 5657 5658 5658 5658
5585 5578 5573 5567 5563 5558 5553 5547 5541 5534 5528 5522 5516 5510 5505 5500 5494 5490 5487 5490 5496 5504 5513 5523 5533 5544 5556 5565 5572 5578 5584 5592 5599 5609 5618 5626 5632 5639 5645 5649 5650 5651 5649
5580 5573 5567 5562 5557 5553 5548 5542 5537 5530 5524 5518 5513 5507 5501 5496 5491 5485 5482 5485 5492 5499 5509 5519 5528 5537 5547 5556 5564 5570 5576 5584 5592 5599 5607 5615 5623 5630 5638 5644 5649 5648 5646
5576 5569 5563 5558 5553 5549 5545 5540 5534 5528 5522 5516 5510 5505 5499 5494 5490 5486 5484 5486 5492 5498 5507 5517 5525 5532 5540 5548 5558 5565 5571 5578 5585 5593 5599 5607 5615 5623 5632 5638 5644 5647 5647
5572 5565 5560 5555 5550 5547 5542 5537 5532 5527 5521 5515 5509 5503 5498 5494 5491 5489 5487 5487 5492 5498 5507 5516 5524 5529 5536 5541 5549 5558 5564 5571 5579 5586 5593 5601 5609 5618 5627 5633 5637 5642 5646
5568 5562 5557 5552 5548 5544 5540 5536 5531 5526 5521 5515 5508 5502 5497 5495 5493 5490 5489 5490 5493 5499 5507 5513 5519 5525 5530 5536 5543 5550 5557 5565 5573 5580 5589 5597 5605 5613 5621 5625 5628 5632 5635
5564 5559 5554 5550 5547 5544 5539 5535 5531 5526 5521 5515 5508 5501 5497 5495 5494 5494 5494 5494 5495 5500 5506 5511 5515 5520 5526 5534 5539 5545 5553 5562 5570 5577 5585 5593 5600 5607 5613 5618 5620 5622 5622
5561 5556 5551 5548 5545 5542 5539 5536 5531 5527 5520 5512 5507 5501 5496 5494 5489 5487 5492 5497 5500 5503 5507 5511 5516 5521 5527 5535 5541 5546 5552 5559 5566 5574 5581 5588 5595 5601 5606 5611 5614 5615 5616
5558 5553 5550 5547 5544 5542 5539 5537 5533 5526 5519 5511 5503 5495 5495 5490 5488 5488 5491 5494 5498 5502 5509 5515 5520 5526 5532 5538 5543 5549 5553 5559 5565 5570 5577 5583 5589 5596 5599 5603 5607 5611 5613
5556 5552 5549 5547 5544 5542 5540 5538 5535 5531 5522 5514 5506 5500 5495 5491 5490 5491 5492 5495 5499 5504 5513 5519 5525 5531 5536 5542 5547 5552 5556 5560 5564 5568 5573 5579 5584 5590 5593 5597 5601 5605 5607
5557 5554 5550 5548 5546 5544 5542 5540 5538 5534 5530 5526 5515 5506 5501 5497 5495 5494 5494 5497 5505 5509 5517 5523 5529 5534 5540 5544 5549 5554 5557 5560 5562 5566 5570 5575 5581 5585 5589 5593 5598 5602 5605
5559 5556 5552 5550 5548 5547 5546 5544 5542 5539 5535 5530 5525 5516 5506 5502 5499 5498 5498 5506 5515 5520 5524 5528 5533 5538 5542 5547 5550 5553 5557 5559 5562 5564 5568 5573 5577 5582 5586 5591 5595 5596 5602
5560 5557 5554 5552 5552 5551 5549 5548 5545 5541 5537 5534 5529 5525 5519 5514 5514 5511 5509 5515 5521 5526 5530 5534 5537 5541 5545 5548 5551 5553 5556 5559 5561 5564 5566 5570 5575 5580 5585 5589 5593 5596 5601
5561 5559 5556 5555 5555 5553 5551 5549 5546 5543 5539 5536 5534 5530 5522 5524 5524 5523 5523 5524 5527 5531 5534 5537 5541 5544 5547 5549 5552 5554 5557 5559 5561 5564 5566 5568 5573 5577 5582 5586 5591 5595 5600
5561 5559 5557 5556 5556 5555 5553 5551 5548 5544 5542 5539 5537 5533 5527 5527 5529 5529 5530 5531 5533 5535 5538 5540 5543 5546 5550 5552 5554 5556 5558 5560 5562 5564 5565 5568 5571 5575 5579 5584 5588 5593 5598
5562 5560 5559 5558 5557 5555 5555 5554 5550 5546 5543 5541 5539 5536 5534 5533 5533 5534 5534 5536 5537 5539 5541 5542 5544 5548 5552 5554 5556 5558 5559 5562 5563 5564 5565 5567 5570 5574 5578 5583 5587 5592 5596
5563 5560 5559 5558 5558 5557 5555 5554 5551 5549 5545 5542 5540 5538 5536 5535 5536 5536 5537 5538 5538 5540 5542 5543 5545 5548 5550 5553 5555 5558 5560 5562 5563 5564 5565 5567 5570 5574 5578 5582 5586 5591 5595
5562 5559 5558 5557 5557 5557 5556 5554 5552 5550 5547 5543 5541 5539 5538 5537 5537 5537 5537 5538 5539 5540 5541 5543 5544 5546 5548 5549 5552 5554 5554 5557 5559 5562 5564 5567 5571 5575 5579 5582 5585 5589 5592
5560 5556 5555 5554 5555 5556 5556 5555 5553 5551 5549 5546 5543 5542 5540 5538 5537 5537 5537 5536 5536 5537 5538 5540 5542 5543 5545 5547 5548 5547 5548 5551 5554 5559 5564 5568 5571 5576 5578 5581 5584 5587 5589